Hourly Data Report for October 07, 2015

All times are specified in Local Standard Time (LST). Add 1 hour to adjust for Daylight Saving Time where and when it is observed.

CLYDE RIVER A
NUNAVUT

70°29'09.000" N
68°31'01.000" W
26.50 m
2400804
71090
YCY

Download Data

Hourly Data (October 2015)
Hourly Data Report for October 7, 2015
Temp Definition
°C
Dew Point Temp Definition
°C
Rel Hum Definition
%
Wind Dir Definition
10's deg

Wind Spd Definition
km/h
Visibility Definition
km
Stn Press Definition
kPa
Hmdx Definition


Wind Chill Definition


Weather Definition


TIME
00:00 Legend Double Dagger -4.5 -8.3 75 29 8 16.1 100.16   -8 LegendNANA
01:00 Legend Double Dagger -5.4 -9.1 75 27 13 16.1 100.14   -11 LegendNANA
02:00 Legend Double Dagger -5.7 -9.2 76 LegendMM 4 16.1 100.12   -8 LegendNANA
03:00 Legend Double Dagger -5.5 -9.1 76 24 5 16.1 100.10   -8 LegendNANA
04:00 Legend Double Dagger -5.5 -9.6 73 27 8 16.1 100.08   -9 LegendNANA
05:00 Legend Double Dagger -7.2 -10.5 77 26 5 16.1 100.05   -10 LegendNANA
06:00 Legend Double Dagger -8.1 -10.9 80 29 9 16.1 100.04   -13 LegendNANA
07:00 Legend Double Dagger -8.2 -10.4 84 27 9 16.1 100.00   -13 LegendNANA
08:00 Legend Double Dagger -5.7 -9.1 77 25 11 16.1 99.98   -10 LegendNANA
09:00 Legend Double Dagger -3.5 -9.1 66 22 5 16.1 99.96   -6 LegendNANA
10:00 Legend Double Dagger -2.6 -8.0 67   0 16.1 99.95     LegendNANA
11:00 Legend Double Dagger -1.5 -8.6 59 24 5 16.1 99.94   -3 LegendNANA
12:00 Legend Double Dagger -0.9 -9.1 54 LegendMM 4 16.1 99.93   -2 LegendNANA
13:00 Legend Double Dagger -0.8 -7.5 61 20 8 16.1 99.93   -4 LegendNANA
14:00 Legend Double Dagger -1.0 -8.4 57 18 9 16.1 99.96   -4 LegendNANA
15:00 Legend Double Dagger -1.8 -7.6 65 15 4 12.9 99.98   -3 LegendNANA
16:00 Legend Double Dagger -3.3 -7.3 74 16 11 16.1 99.99   -8 LegendNANA
17:00 Legend Double Dagger -4.5 -7.8 78 17 13 16.1 100.00   -10 LegendNANA
18:00 Legend Double Dagger -4.4 -7.5 79 19 8 16.1 99.99   -8 LegendNANA
19:00 Legend Double Dagger -4.3 -7.7 77   0 16.1 100.00     LegendNANA
20:00 Legend Double Dagger -6.8 -8.8 86 LegendMM 4 16.1 100.01   -9 LegendNANA
21:00 Legend Double Dagger -5.3 -7.9 82   0 16.1 99.98     LegendNANA
22:00 Legend Double Dagger -3.8 -6.9 79 28 5 16.1 99.96   -6 LegendNANA
23:00 Legend Double Dagger -5.2 -6.9 88 4 9 16.1 99.98   -9 LegendNANA

Notes on Data Quality.

Legend

  • E = Estimated
  • M = Missing
  • NA = Not Available
  • ‡ = Partner data that is not subject to review by the National Climate Archives
Date modified: